Regional Weather Roundup
Issued by NWS Northern Indiana

Home | Current Version | Previous Version | Text Only | Print | Product List | Glossary On
Versions: 1 2 3 4 5 6 7 8 9 10 11 12 13 14 15 16 17 18 19 20 21 22 23 24 25 26 27 28 29 30 31 32 33 34 35 36 37 38 39 40 41 42 43 44 45 46 47 48 49 50
000
ASUS43 KIWX 200710
RWRIWX

KIWX WEATHER ROUNDUP
NATIONAL WEATHER SERVICE NORTHERN INDIANA
200 AM EST SAT JAN 20 2018

NOTE: "FAIR" INDICATES FEW OR NO CLOUDS BELOW 12,000 FEET WITH NO
SIGNIFICANT WEATHER AND/OR OBSTRUCTIONS TO VISIBILITY.

* THESE STATIONS ARE NOT UNDER NWS QUALITY CONTROL. THEY ALSO MAY NOT
  REPORT WEATHER SUCH AS PRECIPITATION OR FOG.

INZ001>027-200800-
NORTHERN INDIANA

CITY           SKY/WX    TMP DP  RH WIND       PRES   REMARKS
GARY*          FAIR      38  27  64 SW12G21   29.82S
VALPARAISO     FAIR      35  27  72 SW16      29.84S WCI  25
MICHIGAN CITY* FAIR      36  27  69 SW13      29.83R
LAPORTE*       FAIR      32  26  77 SW13G18   29.85S WCI  23
KNOX*          FAIR      34  27  75 SW15      29.86S WCI  24
SOUTH BEND     FAIR      33  24  69 SW18G28   29.83F WCI  22
GOSHEN         FAIR      33  24  69 SW17G28   29.84S WCI  22
MONTICELLO*    FAIR      32  24  71 SW14      29.90S WCI  22
LOGANSPORT*    FAIR      32  25  74 SW16G23   29.91S WCI  21
ROCHESTER*     FAIR      34  27  75 SW9G17    29.89S WCI  26
WARSAW*        FAIR      32  23  69 SW7       29.87S WCI  26
AUBURN*        FAIR     N/A N/A N/A SW10G17   29.86S
FORT WAYNE     FAIR      34  24  67 SW17G25   29.89R WCI  23
HUNTINGTON*    FAIR      33  23  65 SW9G17    29.90R WCI  26
PERU/GRISSOM   FAIR      32  26  77 SW15      29.90R WCI  22
MARION*        FAIR      32  24  72 SW16      29.92R HAZE    WCI  21

$$
INZ028>050-200800-
CENTRAL INDIANA

CITY           SKY/WX    TMP DP  RH WIND       PRES   REMARKS
LAFAYETTE      FAIR      33  24  69 SW12      29.93R WCI  24
MUNCIE*        FAIR      35  22  58 SW14G21   29.92R WCI  26
INDIANAPOLIS   MOCLDY    35  22  58 SW17      29.96S WCI  25

$$
MIZ043>046-050>051-056>058-064>065-071>073-077>080-200800-
SOUTHWEST LOWER MICHIGAN

CITY           SKY/WX    TMP DP  RH WIND       PRES   REMARKS
BATTLE CREEK   FAIR      34  24  67 SW16      29.77S WCI  24
BENTON HARBOR  FAIR      40  25  55 SW17      29.79S
COLDWATER*     FAIR      34  24  68 SW18      29.80S WCI  23
HILLSDALE*     FAIR      34  23  64 SW14G23   29.78S WCI  24
HOLLAND        FAIR      37  29  72 SW21G32   29.75R
GRAND RAPIDS   FAIR      38  27  64 SW24G30   29.72R
KALAMAZOO      FAIR      37  25  61 SW13      29.78S
STURGIS*       FAIR      33  25  72 SW15      29.81S WCI  23
THREE RIVERS*  FAIR      36  25  64 SW13      29.81S

$$
OHZ001>008-015>018-024>025-200800-
NORTHWEST OHIO

CITY           SKY/WX    TMP DP  RH WIND       PRES   REMARKS
WAUSEON*       FAIR      34  27  75 SW16G25   29.82F WCI  23
DEFIANCE       FAIR      33  23  66 SW14G23   29.86S WCI  23
FINDLAY        FAIR      34  23  64 SW20G28   29.87S WCI  23
TOLEDO EXPRESS FAIR      35  26  69 SW17G28   29.83F WCI  25
TOLEDO METCALF FAIR      34  25  69 SW18G26   29.85S WCI  23
LIMA           FAIR      34  25  69 SW20G26   29.89S WCI  23

$$
AND FOR LAKE MICHIGAN COASTAL AND OPEN LAKE BUOY OBSERVATIONS

STATION/POSITION TEMP    WIND        PRES    VSBY  WAVE
                 AIR SEA DIR/SP/G                  HT/PER
                 (F)     (DEG/KT/KT) (MB)    (MI)  (FT/S)
CALUMET HARBOR           210/ 14/ 20 1008.4R
MICHIGAN CITY     39     190/ 20/ 23   N/A
BURNS HARBOR      38     210/ 21/ 31 1009.8F
SAINT JOSEPH      36     210/ 13/ 19 1010.2

$$
&&



USA.gov is the U.S. government's official web portal to all federal, state and local government web resources and services.